Tracking 22438 objects as of 24-Feb-2021
HD Live streaming from Space Station
objects crossing your sky now

DELTA 1 DEB

Track DELTA 1 DEB now!
10-day predictions


NORAD ID: 21272
Int'l Code: 1975-052H
Perigee: 1,060.9 km
Apogee: 1,533.8 km
Inclination: 99.9 °
Period: 111.4 minutes
Semi major axis: 7668 km
RCS: 0.0353 m2 (small)
Launch date: June 12, 1975
Source: United States (US)
Launch site: AIR FORCE WESTERN TEST RANGE (AFWTR)

Note: This is SATELLITE DEBRIS
aabbcc
Your satellite tracking list
Your tracking list is empty




NASA's NSSDC Master Catalog

Two Line Element Set (TLE):
1 21272U 75052H   21055.65727118  .00000105  00000-0  43193-3 0  9992
2 21272  99.8830   8.3243 0308349 277.1178 259.5787 12.92858038339377
Source of the keplerian elements: AFSPC